Flag for United Kingdom Weather past 2 weeks in Leeds, England, United Kingdom

Now
55 °F

Partly sunny.


Feels Like: 52 °F
Forecast: 47 / 58 °F
Wind: 12 mph from Northwest

Location: Leeds And Bradford

Current Time: Sep 4, 2015 at 2:21:32 PM

Latest Report: Sep 4, 2015 at 1:50 PM


Visibility: N/A

Pressure: 30.07 "Hg

Humidity: 72%

Dew point: 46 °F

Location of LeedsLocation

Historic Weather in Leeds — Graph

°F

Leeds temperature yesterday

Maximum temperature yesterday: 54 °F (at 1:50 PM)
Minimum temperature yesterday: 46 °F (at 5:20 AM)
Average temperature yesterday: 50 °F

Past Weeks' High & Low Weather Summary

 TemperatureHumidityPressure
High73 °F (Aug 22, 4:20 PM)100% (Aug 21, 1:20 AM)30.09 "Hg (Aug 21, 1:20 AM)
Low46 °F (Sep 3, 5:20 AM)61% (Aug 23, 12:20 PM)29.45 "Hg (Aug 26, 6:20 AM)
Average57 °F86%29.86 "Hg
* Reported Aug 20 1:20 PM — Sep 4 1:20 PM, Leeds, Weather by CustomWeather, © 2015

Note: Actual official high and low records may vary slightly from our data, if they occured in-between our weather recording intervals... More about our weather records

Advertising

Leeds weather history for previous 24 hours

 ConditionsComfort  
Time TempWeatherWind HumidityBarometerVisibility
1:20 PM
Fri, Sep 4
54 °FPartly sunny.14 mph77%30.07 "HgN/A
12:50 PM54 °FPartly sunny.10 mph77%30.07 "HgN/A
12:20 PM52 °FPartly sunny.15 mph77%30.07 "HgN/A
11:50 AM54 °FPartly sunny.12 mph72%30.07 "HgN/A
11:20 AM54 °FPartly sunny.13 mph77%30.07 "HgN/A
10:20 AM52 °FPartly sunny.14 mph77%30.07 "HgN/A
9:50 AM50 °FPartly sunny.10 mph82%30.07 "HgN/A
9:20 AM52 °FPartly sunny.14 mph77%30.04 "HgN/A
8:50 AM50 °FPartly sunny.14 mph82%30.04 "HgN/A
8:20 AM50 °FScattered clouds.10 mph82%30.04 "HgN/A
7:50 AM50 °FPartly sunny.13 mph76%30.04 "HgN/A
7:20 AM48 °FPartly sunny.12 mph82%30.04 "HgN/A
6:50 AM48 °FPassing clouds.12 mph82%30.01 "HgN/A
6:20 AM48 °FPassing clouds.8 mph82%30.01 "HgN/A
5:50 AM48 °FPassing clouds.9 mph87%30.01 "HgN/A
5:20 AM48 °FPassing clouds.9 mph87%30.01 "HgN/A
4:50 AM48 °FPassing clouds.8 mph82%30.01 "HgN/A
4:20 AM50 °FPassing clouds.13 mph82%30.01 "HgN/A
3:50 AM50 °FPassing clouds.9 mph82%30.01 "HgN/A
3:20 AM52 °FPassing clouds.8 mph82%30.01 "HgN/A
2:50 AM50 °FPassing clouds.12 mph88%30.01 "HgN/A
2:20 AM50 °FPassing clouds.7 mph88%30.01 "HgN/A
1:50 AM50 °FPassing clouds.9 mph88%30.01 "HgN/A
1:20 AM50 °FPassing clouds.7 mph88%30.01 "HgN/A
12:50 AM50 °FPassing clouds.8 mph88%30.01 "HgN/A
12:20 AM50 °FPassing clouds.12 mph88%30.01 "HgN/A
11:50 PM
Thu, Sep 3
52 °FPassing clouds.12 mph82%30.01 "HgN/A
11:20 PM52 °FPassing clouds.12 mph82%30.01 "HgN/A
10:20 PM52 °FPassing clouds.9 mph82%30.01 "HgN/A
9:50 PM52 °FPassing clouds.10 mph82%30.01 "HgN/A
9:20 PM52 °FPassing clouds.10 mph82%30.01 "HgN/A
8:50 PM52 °FPartly sunny.9 mph82%29.98 "HgN/A
8:20 PM52 °FPartly sunny.12 mph82%29.98 "HgN/A
7:50 PM52 °FPartly sunny.12 mph82%29.98 "HgN/A
7:20 PM52 °FPartly sunny.10 mph82%29.98 "HgN/A
6:50 PM52 °FPartly sunny.10 mph82%29.98 "HgN/A
6:20 PM52 °FPartly sunny.12 mph82%29.98 "HgN/A
5:50 PM52 °FPartly sunny.12 mph82%29.98 "HgN/A
5:20 PM52 °FPartly sunny.10 mph82%29.98 "HgN/A
4:50 PM52 °FBroken clouds.10 mph88%29.98 "HgN/A
4:20 PM52 °FLight rain. Broken clouds.10 mph88%29.98 "HgN/A
3:50 PM52 °FPartly sunny.14 mph82%29.98 "HgN/A
3:20 PM54 °FPartly sunny.14 mph77%29.98 "HgN/A
2:50 PM54 °FPartly sunny.14 mph72%29.98 "HgN/A
2:20 PM54 °FPartly sunny.15 mph72%29.98 "HgN/A
Weather by CustomWeather, © 2015

See weather overviewHow to use our weather pages